• In United States
  • List of Countries
  • For 7 days
  • Water Temperature
  • Satellite Maps
  • Weather Map
  • Weather Widgets
  • user-avatar
    Login

    Hourly Weather Ondjiwa

    Today, 24 June, Sunday

    Time Temperature Precipitation Wind Pressure Humidity
    00:00 +16°C° 0 mm 2 mps 669 mmHg 40%
    01:00 +16°C° 0 mm 2 mps 669 mmHg 41%
    02:00 +15°C° 0 mm 2 mps 669 mmHg 42%
    03:00 +15°C° 0 mm 2 mps 669 mmHg 43%
    04:00 +14°C° 0 mm 2 mps 669 mmHg 44%
    05:00 +14°C° 0 mm 2 mps 669 mmHg 45%
    06:00 +13°C° 0 mm 2 mps 669 mmHg 46%
    07:00 +13°C° 0 mm 2 mps 669 mmHg 47%
    08:00 +17°C° 0 mm 3 mps 670 mmHg 39%
    09:00 +21°C° 0 mm 4 mps 671 mmHg 31%
    10:00 +26°C° 0 mm 4 mps 672 mmHg 23%
    11:00 +27°C° 0 mm 4 mps 671 mmHg 21%
    12:00 +28°C° 0 mm 4 mps 671 mmHg 18%
    13:00 +29°C° 0 mm 3 mps 671 mmHg 15%
    14:00 +29°C° 0 mm 3 mps 670 mmHg 15%
    15:00 +29°C° 0 mm 2 mps 670 mmHg 14%
    16:00 +29°C° 0 mm 2 mps 669 mmHg 14%
    17:00 +26°C° 0 mm 2 mps 669 mmHg 17%
    18:00 +24°C° 0 mm 2 mps 669 mmHg 20%
    19:00 +20°C° 0 mm 2 mps 668 mmHg 23%
    20:00 +19°C° 0 mm 2 mps 668 mmHg 24%
    21:00 +18°C° 0 mm 2 mps 668 mmHg 25%
    22:00 +17°C° 0 mm 2 mps 668 mmHg 26%
    23:00 +16°C° 0 mm 2 mps 668 mmHg 27%

    Tomorrow, 25 June, Monday

    Time Temperature Precipitation Wind Pressure Humidity
    00:00 +16°C° 0 mm 2 mps 668 mmHg 27%
    01:00 +15°C° 0 mm 2 mps 668 mmHg 28%
    02:00 +14°C° 0 mm 2 mps 668 mmHg 29%
    03:00 +14°C° 0 mm 2 mps 668 mmHg 31%
    04:00 +13°C° 0 mm 2 mps 667 mmHg 32%
    05:00 +13°C° 0 mm 1 mps 668 mmHg 33%
    06:00 +13°C° 0 mm 1 mps 668 mmHg 34%
    07:00 +12°C° 0 mm 1 mps 668 mmHg 35%
    08:00 +16°C° 0 mm 2 mps 669 mmHg 30%
    09:00 +19°C° 0 mm 2 mps 670 mmHg 26%
    10:00 +24°C° 0 mm 3 mps 671 mmHg 21%
    11:00 +26°C° 0 mm 3 mps 671 mmHg 19%
    12:00 +27°C° 0 mm 3 mps 670 mmHg 18%
    13:00 +29°C° 0 mm 2 mps 670 mmHg 16%
    14:00 +29°C° 0 mm 2 mps 669 mmHg 16%
    15:00 +29°C° 0 mm 1 mps 669 mmHg 16%
    16:00 +29°C° 0 mm 1 mps 669 mmHg 16%
    17:00 +27°C° 0 mm 1 mps 668 mmHg 18%
    18:00 +24°C° 0 mm 2 mps 668 mmHg 21%
    19:00 +21°C° 0 mm 2 mps 668 mmHg 24%
    20:00 +20°C° 0 mm 3 mps 668 mmHg 25%
    21:00 +19°C° 0 mm 3 mps 669 mmHg 25%
    22:00 +18°C° 0 mm 3 mps 669 mmHg 26%
    23:00 +18°C° 0 mm 3 mps 669 mmHg 27%

    Day after tomorrow, 26 June, Tuesday

    Time Temperature Precipitation Wind Pressure Humidity
    00:00 +17°C° 0 mm 3 mps 668 mmHg 27%
    01:00 +16°C° 0 mm 3 mps 668 mmHg 28%
    02:00 +15°C° 0 mm 2 mps 668 mmHg 29%
    03:00 +15°C° 0 mm 2 mps 668 mmHg 31%
    04:00 +14°C° 0 mm 1 mps 667 mmHg 32%
    05:00 +14°C° 0 mm 1 mps 668 mmHg 34%
    06:00 +13°C° 0 mm 1 mps 668 mmHg 35%
    07:00 +13°C° 0 mm 1 mps 668 mmHg 36%
    08:00 +18°C° 0 mm 1 mps 669 mmHg 31%
    09:00 +20°C° 0 mm 2 mps 670 mmHg 26%
    10:00 +24°C° 0 mm 2 mps 671 mmHg 21%
    11:00 +26°C° 0 mm 3 mps 671 mmHg 19%
    12:00 +28°C° 0 mm 3 mps 670 mmHg 17%
    13:00 +30°C° 0 mm 3 mps 670 mmHg 15%
    14:00 +30°C° 0 mm 2 mps 670 mmHg 15%
    15:00 +30°C° 0 mm 2 mps 669 mmHg 15%
    16:00 +30°C° 0 mm 2 mps 669 mmHg 14%
    17:00 +27°C° 0 mm 2 mps 669 mmHg 17%
    18:00 +25°C° 0 mm 2 mps 669 mmHg 20%
    19:00 +21°C° 0 mm 2 mps 668 mmHg 23%
    20:00 +20°C° 0 mm 2 mps 669 mmHg 24%
    21:00 +19°C° 0 mm 3 mps 669 mmHg 25%
    22:00 +18°C° 0 mm 3 mps 669 mmHg 26%
    23:00 +17°C° 0 mm 3 mps 669 mmHg 27%

    27 June, Wednesday

    Time Temperature Precipitation Wind Pressure Humidity
    00:00 +17°C° 0 mm 3 mps 669 mmHg 28%
    01:00 +16°C° 0 mm 3 mps 668 mmHg 29%
    02:00 +15°C° 0 mm 2 mps 668 mmHg 30%
    03:00 +15°C° 0 mm 2 mps 668 mmHg 32%
    04:00 +14°C° 0 mm 2 mps 668 mmHg 33%
    05:00 +14°C° 0 mm 2 mps 668 mmHg 35%
    06:00 +13°C° 0 mm 2 mps 669 mmHg 37%
    07:00 +13°C° 0 mm 2 mps 669 mmHg 39%
    08:00 +17°C° 0 mm 3 mps 670 mmHg 33%
    09:00 +21°C° 0 mm 4 mps 671 mmHg 28%
    10:00 +26°C° 0 mm 5 mps 672 mmHg 22%
    11:00 +27°C° 0 mm 5 mps 671 mmHg 19%
    12:00 +29°C° 0 mm 4 mps 671 mmHg 17%
    13:00 +30°C° 0 mm 4 mps 670 mmHg 14%
    14:00 +30°C° 0 mm 4 mps 670 mmHg 14%
    15:00 +30°C° 0 mm 3 mps 669 mmHg 14%
    16:00 +30°C° 0 mm 3 mps 669 mmHg 14%
    17:00 +27°C° 0 mm 3 mps 669 mmHg 17%
    18:00 +24°C° 0 mm 3 mps 669 mmHg 20%
    19:00 +21°C° 0 mm 3 mps 669 mmHg 24%
    20:00 +20°C° 0 mm 3 mps 669 mmHg 26%
    21:00 +19°C° 0 mm 3 mps 669 mmHg 27%
    22:00 +18°C° 0 mm 3 mps 669 mmHg 29%
    23:00 +18°C° 0 mm 3 mps 669 mmHg 31%

    28 June, Thursday

    Time Temperature Precipitation Wind Pressure Humidity
    00:00 +17°C° 0 mm 3 mps 669 mmHg 32%
    01:00 +17°C° 0 mm 3 mps 669 mmHg 33%
    02:00 +16°C° 0 mm 3 mps 669 mmHg 35%
    03:00 +14°C° 0 mm 3 mps 669 mmHg 37%
    04:00 +14°C° 0 mm 3 mps 668 mmHg 38%
    05:00 +13°C° 0 mm 3 mps 669 mmHg 40%
    06:00 +13°C° 0 mm 3 mps 669 mmHg 41%
    07:00 +13°C° 0 mm 3 mps 669 mmHg 43%
    08:00 +17°C° 0 mm 3 mps 670 mmHg 36%
    09:00 +21°C° 0 mm 4 mps 671 mmHg 29%
    10:00 +26°C° 0 mm 5 mps 672 mmHg 22%
    11:00 +27°C° 0 mm 4 mps 671 mmHg 20%
    12:00 +28°C° 0 mm 4 mps 671 mmHg 17%
    13:00 +30°C° 0 mm 3 mps 670 mmHg 15%
    14:00 +30°C° 0 mm 3 mps 670 mmHg 14%
    15:00 +30°C° 0 mm 2 mps 670 mmHg 14%
    16:00 +30°C° 0 mm 2 mps 669 mmHg 13%
    17:00 +27°C° 0 mm 2 mps 669 mmHg 16%
    18:00 +24°C° 0 mm 2 mps 669 mmHg 19%
    19:00 +20°C° 0 mm 2 mps 669 mmHg 23%
    20:00 +20°C° 0 mm 3 mps 669 mmHg 25%
    21:00 +19°C° 0 mm 3 mps 669 mmHg 27%
    22:00 +18°C° 0 mm 3 mps 669 mmHg 30%
    23:00 +17°C° 0 mm 3 mps 669 mmHg 31%

    29 June, Friday

    Time Temperature Precipitation Wind Pressure Humidity
    00:00 +16°C° 0 mm 3 mps 668 mmHg 33%
    01:00 +16°C° 0 mm 3 mps 668 mmHg 35%
    02:00 +14°C° 0 mm 3 mps 668 mmHg 36%
    03:00 +13°C° 0 mm 3 mps 668 mmHg 37%
    04:00 +13°C° 0 mm 3 mps 668 mmHg 38%
    05:00 +12°C° 0 mm 3 mps 668 mmHg 38%
    06:00 +12°C° 0 mm 3 mps 669 mmHg 38%
    07:00 +12°C° 0 mm 3 mps 669 mmHg 38%
    08:00 +16°C° 0 mm 3 mps 670 mmHg 32%
    09:00 +20°C° 0 mm 4 mps 671 mmHg 25%
    10:00 +25°C° 0 mm 4 mps 671 mmHg 18%
    11:00 +26°C° 0 mm 4 mps 671 mmHg 17%
    12:00 +28°C° 0 mm 3 mps 670 mmHg 15%
    13:00 +29°C° 0 mm 2 mps 670 mmHg 13%
    14:00 +29°C° 0 mm 2 mps 670 mmHg 13%
    15:00 +29°C° 0 mm 2 mps 669 mmHg 13%
    16:00 +29°C° 0 mm 2 mps 669 mmHg 12%
    17:00 +27°C° 0 mm 2 mps 668 mmHg 15%
    18:00 +24°C° 0 mm 2 mps 668 mmHg 17%
    19:00 +20°C° 0 mm 2 mps 668 mmHg 20%
    20:00 +19°C° 0 mm 2 mps 668 mmHg 21%
    21:00 +18°C° 0 mm 2 mps 668 mmHg 22%
    22:00 +17°C° 0 mm 2 mps 668 mmHg 23%
    23:00 +16°C° 0 mm 2 mps 668 mmHg 25%
    Show more